User: anonymous   Login
Location: Grand Mazuras
(45.9128°N, 1.7636°E)
Time: 21:48:59
(UTC+00:00)
Language:

Cosmos 44 - Orbit

View from above orbital plane
View from above orbital plane
View from above satellite
View from above satellite

Ground track
Ground track

The orbit data is extracted from the following two-line orbital elements,

1 00876U 64053A   21171.51170175 -.00000097  00000-0  75281-5 0  9993
2 00876  65.0607 301.6941 0155768 258.4894  99.8682 14.63798927 21745
Epoch (UTC): 20 June 2021 12:16:51
Eccentricity: 0.0155768
inclination: 65.0607°
perigee height: 571 km
apogee height: 791 km
right ascension of ascending node: 301.6941°
argument of perigee: 258.4894°
revolutions per day: 14.63798927
mean anomaly at epoch: 99.8682°
orbit number at epoch: 2174

The dashed part of the orbit path shows where the satellite is in the earth's shadow,  

DLR